INMARSAT 3-F1

Last updated on Sun Jun 21 2026 00:03:03 GMT+0000 (Coordinated Universal Time)

1 23839U 96020A 26171.23030740 -.00000108 00000+0 00000+0 0 9996 2 23839 10.6069 46.6064 0003787 56.4316 149.9351 0.99978301110285
UTC large
Height (km)
Speed (km/s)
/
Latitude / Longitude
Inclination (degrees)
Orbital Period (minutes)
Azimuth
Elevation
Range (km)
Doppler Factor

Next 0 passes for location: London (51.5072 / 0.1276)

No passes found over London.
INMARSAT 3-F1